Wind_Speed
6 4 2 0 1 2 3 4 6 6 8 11 8 8 11 14 16 15 16 18 18 20 21 25 25 26 29 29 33 34 33 32 32 31 33 34 36 35 32 31 32 33 33 34 33 34 34 32 33
4 2 2 2 2 5 5 6 9 11 9 11 9 9 11 14 16 16 18 20 21 23 24 26 29 31 31 34 35 37 37 36 35 33 35 36 37 37 35 33 33 35 35 35 35 36 37 35 35
2 3 4 3 4 7 5 6 9 11 10 11 10 10 13 14 15 15 19 20 22 24 27 29 29 32 33 36 37 38 38 39 39 39 38 38 39 40 38 36 35 36 37 36 37 36 38 36 36
2 3 4 6 8 9 7 7 9 10 10 12 9 11 14 14 15 17 18 20 21 23 27 30 32 33 36 39 40 39 41 44 45 43 44 42 43 42 40 38 35 37 37 37 38 38 38 38 35
3 4 6 7 8 9 7 7 8 8 11 11 10 12 15 15 15 18 18 21 24 25 26 32 38 42 43 43 43 43 44 45 45 47 49 50 47 47 42 42 37 36 37 37 38 38 39 39 38
4 5 7 8 9 10 8 8 7 8 12 13 12 14 15 16 17 17 21 25 27 28 31 36 40 44 49 51 46 46 45 42 48 53 52 51 52 49 46 42 40 36 36 37 39 42 38 39 39
8 8 8 9 10 10 10 10 10 11 13 12 12 13 15 15 17 18 22 27 29 32 36 41 46 48 51 49 46 46 44 48 53 51 51 48 48 47 46 44 42 38 36 36 39 37 42 37 38
12 12 9 11 10 13 11 11 11 12 15 13 13 12 14 15 15 19 23 27 31 35 40 46 50 54 55 48 46 43 44 48 46 43 41 43 44 43 42 43 41 40 37 36 36 36 35 40 37
13 12 11 12 11 12 12 14 14 14 15 14 14 14 15 15 18 21 24 29 32 38 42 50 54 58 56 52 45 45 48 43 38 36 35 37 39 40 39 41 43 40 39 37 37 35 30 39 39
11 12 12 13 14 14 14 15 15 15 15 14 15 16 16 17 20 22 26 30 35 41 47 52 57 58 57 53 50 49 47 42 38 36 38 39 37 39 36 47 40 43 41 38 36 36 34 32 40
10 11 11 12 13 14 15 16 15 16 15 15 16 16 17 18 20 23 26 31 34 42 49 54 56 58 58 53 52 49 47 41 39 39 39 41 43 39 38 37 36 45 42 37 37 37 35 33 35
12 14 14 14 14 15 15 15 15 16 15 15 17 17 17 17 19 23 26 30 37 44 50 55 58 58 57 54 54 52 49 42 38 37 34 37 41 42 37 31 39 39 43 36 40 37 36 34 33
14 15 15 15 15 15 14 15 15 15 14 15 17 16 17 17 19 22 25 31 38 45 52 59 59 59 57 59 57 52 43 38 37 34 30 31 34 42 40 39 48 45 43 41 40 37 36 36 35
17 16 16 16 16 15 14 14 14 14 15 16 17 16 16 17 20 22 26 33 40 47 55 59 57 58 60 61 50 35 29 33 32 32 29 32 29 31 32 39 36 32 44 40 40 43 39 38 35
19 18 18 18 17 16 15 14 12 14 16 16 16 15 16 18 20 21 28 35 41 50 55 58 59 57 60 49 32 27 26 25 25 29 30 32 38 37 37 32 37 32 35 42 40 37 39 39 37
21 20 20 20 18 16 14 15 12 14 15 17 15 16 16 18 22 21 28 35 41 50 56 63 62 60 58 37 32 29 28 24 23 30 33 34 36 42 40 33 32 34 31 37 35 35 42 44 37
21 19 19 19 17 16 14 16 13 15 16 18 14 15 16 19 22 22 28 35 41 51 58 66 65 63 47 38 38 35 33 36 35 33 35 40 42 42 46 41 34 35 33 39 31 38 36 32 38
21 19 18 19 17 15 14 16 15 17 18 18 14 14 16 20 22 23 27 34 42 50 58 67 65 59 44 42 39 40 39 42 43 40 41 38 36 41 44 42 38 37 36 28 38 31 37 35 41
22 20 19 19 17 15 16 16 17 17 21 18 14 15 16 19 23 23 27 33 42 50 59 64 66 55 43 41 41 39 42 45 44 45 34 40 37 40 42 42 40 38 33 41 27 28 35 41 41
24 22 22 20 17 15 16 17 17 19 21 18 16 15 17 19 23 22 25 31 39 48 56 62 63 50 43 40 45 41 36 37 30 15 21 30 35 40 37 38 38 36 30 28 38 37 32 34 33
26 24 22 19 17 17 16 16 18 18 20 19 18 16 18 19 22 21 23 30 37 45 53 60 62 47 39 43 46 36 32 29 25 10 11 24 29 33 30 35 35 35 37 36 28 32 23 22 26
28 26 21 18 17 18 17 11 20 17 20 21 18 16 18 19 21 19 21 28 34 43 50 59 61 46 36 43 42 33 27 30 24 16 7 8 13 19 27 32 29 30 31 32 16 15 19 13 10
29 26 23 19 17 15 19 14 16 19 21 21 20 17 18 20 21 18 20 26 31 40 48 57 60 45 35 41 37 28 23 29 26 16 11 10 11 14 25 25 18 22 23 23 22 9 11 14 11
30 28 26 21 19 17 18 17 13 17 21 22 20 17 17 18 20 18 18 24 29 37 44 53 57 45 37 37 35 28 21 25 27 18 15 17 17 17 22 23 19 16 23 13 5 9 13 11 12
33 31 29 27 22 20 18 16 17 18 21 21 19 18 17 17 19 18 17 21 28 34 39 47 54 48 35 30 33 25 22 23 23 24 21 24 23 21 19 19 17 17 21 18 17 11 7 12 10
33 32 31 31 26 23 21 17 18 20 22 22 21 19 18 17 19 18 15 18 25 30 36 43 50 46 33 24 30 27 27 21 21 19 18 21 23 23 21 21 23 24 24 22 19 19 18 19 16
33 32 32 34 32 30 23 18 19 23 23 22 21 20 20 18 19 18 15 13 22 27 32 37 46 43 37 25 19 25 26 26 18 16 13 12 18 19 14 19 21 23 25 19 17 15 16 17 17
34 33 35 36 36 35 28 19 21 23 26 23 21 23 21 19 20 20 15 12 16 23 28 30 39 44 38 29 19 17 23 24 17 21 14 14 12 12 12 14 17 20 19 6 13 19 15 15 16
41 39 38 38 40 39 35 23 21 24 27 25 23 25 23 22 20 21 19 12 11 18 22 25 30 38 40 35 24 17 16 19 22 14 15 12 14 16 14 11 11 14 13 4 18 3 12 1 11
40 42 41 42 41 41 39 30 26 27 29 28 26 26 27 25 20 21 22 15 11 12 17 21 25 29 34 36 33 22 12 9 11 16 14 12 10 13 12 12 11 13 10 4 2 6 8 10 10
Wind_Direction
203 222 216 115 30 288 289 283 298 316 321 313 318 319 318 325 332 332 332 331 330 326 328 331 331 332 330 324 321 319 315 311 305 296 286 279 274 268 264 259 253 251 245 242 240 238 236 233 235
206 244 300 353 341 302 305 309 304 304 303 306 315 329 325 324 334 334 330 329 331 332 332 331 334 330 326 323 318 314 308 304 295 284 277 272 270 268 263 258 253 248 247 243 239 236 234 232 232
241 272 310 334 316 293 310 306 297 285 301 314 330 328 324 322 329 325 324 328 334 337 334 331 324 323 318 316 315 311 302 295 288 282 276 272 268 265 262 257 253 248 244 243 239 237 235 231 232
254 316 322 324 300 302 299 289 278 274 300 330 315 317 315 317 321 321 326 339 338 333 328 327 324 317 311 312 310 301 291 286 286 284 282 276 271 266 260 256 248 249 246 243 239 237 236 232 233
272 306 324 316 319 316 313 290 275 276 311 320 311 313 313 317 322 321 338 341 340 331 325 326 324 320 317 312 303 296 289 287 286 286 282 278 272 268 262 256 251 248 249 245 243 238 237 234 233
277 302 297 300 322 326 326 301 292 295 311 319 315 315 311 317 318 327 341 343 337 332 330 326 322 318 318 313 299 294 290 288 287 281 276 273 269 266 260 256 253 246 247 247 245 240 233 237 233
274 285 295 304 307 311 314 312 312 305 309 312 313 308 305 311 314 331 341 339 335 334 332 327 320 319 316 305 300 297 292 292 285 278 276 272 267 261 256 252 250 245 241 246 249 248 230 232 236
267 274 292 299 304 300 313 311 309 304 310 311 315 301 301 307 317 331 337 337 335 337 330 323 320 318 314 304 304 302 293 296 286 276 273 268 259 254 253 245 244 245 239 238 243 249 249 227 232
270 281 280 289 293 303 319 317 314 308 310 307 311 305 302 309 315 328 335 335 335 333 328 323 323 319 311 312 309 303 297 296 285 274 268 269 268 257 251 253 239 237 241 235 239 245 246 239 224
279 281 282 289 298 307 310 313 311 312 308 303 308 308 310 306 320 336 335 335 335 332 324 324 322 316 314 314 310 304 299 293 280 272 270 264 261 264 245 249 237 234 235 235 236 239 243 245 234
284 289 292 298 303 305 308 311 312 309 307 302 305 309 311 313 327 335 335 338 336 330 323 325 322 315 316 314 309 304 297 292 277 273 269 261 256 254 258 249 233 230 231 231 231 236 238 233 236
283 286 290 298 306 304 304 307 308 305 303 297 302 309 309 313 328 332 340 338 337 329 327 329 327 322 319 314 311 305 300 291 274 268 270 260 249 251 252 254 233 238 230 227 232 228 236 235 233
287 289 291 300 301 299 301 304 303 302 298 298 304 308 306 316 328 335 340 337 337 332 334 337 331 325 321 317 313 305 297 281 269 263 263 256 248 249 248 245 246 230 231 227 231 228 231 234 230
293 293 288 294 297 295 299 299 301 303 302 303 306 309 308 316 328 334 337 337 339 336 340 340 329 328 322 320 319 312 303 289 267 257 256 248 245 245 247 248 245 247 232 223 227 229 227 235 232
296 295 289 288 290 289 293 293 294 298 300 307 307 310 306 319 327 334 337 339 340 339 344 341 335 331 323 325 323 310 303 291 263 254 254 247 240 241 243 241 243 249 242 222 234 224 232 233 232
298 296 288 282 280 284 287 289 287 295 303 308 303 309 306 318 325 333 339 340 342 341 349 344 339 333 329 327 319 311 301 292 276 261 251 246 238 241 236 238 237 235 216 203 211 223 234 228 228
297 297 287 277 276 282 282 282 283 297 300 300 298 305 306 317 323 330 337 341 343 344 351 344 342 337 334 331 326 318 310 302 288 268 251 246 238 238 237 233 230 224 223 209 220 228 237 226 227
292 293 284 275 277 281 276 276 282 296 297 296 293 299 307 320 327 331 335 342 341 346 353 346 344 341 339 333 324 323 323 312 294 280 257 243 236 229 233 226 227 223 208 204 225 233 227 218 235
288 287 282 273 274 273 273 272 282 291 291 294 293 297 307 319 325 331 335 343 342 349 354 349 347 343 339 330 328 325 330 318 299 282 261 233 227 222 227 216 222 219 228 217 233 223 218 217 225
284 280 282 279 276 267 265 269 282 292 289 292 291 297 303 314 322 331 338 344 346 351 355 351 350 345 340 338 337 333 337 332 329 291 225 203 209 218 218 205 215 216 217 195 209 205 210 218 225
279 275 278 277 273 265 261 267 281 291 292 293 286 291 300 309 320 331 338 347 351 353 358 353 354 348 345 347 344 346 349 357 15 21 177 193 202 212 206 199 211 211 212 200 211 205 201 208 214
271 269 271 270 268 265 266 252 282 290 296 295 290 288 297 304 315 327 339 349 356 356 0 356 357 354 352 354 351 1 19 29 37 54 105 163 183 199 193 194 207 210 218 190 245 220 187 182 189
265 264 262 264 263 264 266 270 267 291 296 294 289 286 292 301 311 323 340 351 357 358 2 358 360 1 356 359 1 6 26 36 40 63 99 121 137 153 180 193 200 200 222 219 226 190 179 180 182
260 258 256 257 264 266 263 275 277 286 292 293 288 287 289 297 308 319 337 349 360 1 4 1 3 6 3 2 9 12 24 32 37 55 93 117 135 150 168 186 185 183 199 186 189 202 166 159 184
255 252 253 253 261 270 269 274 277 288 293 293 285 286 287 297 305 316 330 346 358 3 10 6 5 10 4 9 21 29 29 13 31 50 91 108 121 134 148 166 171 184 173 150 151 134 200 225 221
248 247 249 254 258 263 275 279 273 286 292 292 287 285 286 294 297 310 323 342 349 2 10 9 9 13 10 12 26 25 32 23 19 41 78 117 126 138 148 157 168 179 175 160 161 187 210 212 238
245 247 248 253 259 264 267 274 279 286 287 287 288 285 284 290 293 301 314 339 342 2 10 13 11 17 16 10 23 25 16 24 38 34 78 99 133 134 148 159 175 173 169 158 179 190 212 220 245
245 245 247 252 259 263 267 268 281 284 283 286 287 285 282 284 292 293 304 325 342 357 11 17 17 17 23 19 10 25 32 35 53 46 72 107 137 154 156 166 179 176 179 198 189 199 213 220 224
244 245 246 251 255 262 268 268 277 282 282 285 282 281 281 280 284 289 293 310 333 349 10 14 25 23 23 32 33 23 46 50 50 66 72 87 117 137 151 153 167 178 174 199 202 200 220 238 249
247 244 244 249 254 259 265 271 273 272 277 278 275 276 276 274 277 282 285 297 312 344 1 16 19 31 31 33 37 42 43 58 65 66 82 81 108 122 128 141 138 154 164 185 244 313 291 315 293
Height
5826 5827 5826 5826 5827 5825 5823 5824 5822 5822 5823 5821 5819 5818 5816 5813 5812 5812 5808 5807 5806 5804 5803 5801 5799 5796 5793 5790 5787 5786 5784 5782 5781 5779 5777 5775 5774 5775 5776 5776 5778 5779 5779 5780 5781 5783 5786 5791 5793
5826 5827 5827 5825 5825 5824 5823 5822 5820 5820 5820 5819 5818 5815 5813 5811 5810 5808 5806 5805 5803 5802 5799 5797 5794 5791 5788 5785 5782 5779 5775 5774 5771 5769 5768 5767 5766 5766 5768 5769 5770 5772 5774 5776 5778 5779 5782 5785 5787
5825 5825 5826 5825 5824 5823 5822 5820 5819 5818 5818 5817 5815 5813 5811 5809 5808 5807 5805 5804 5802 5799 5795 5792 5789 5786 5783 5780 5777 5773 5769 5766 5764 5762 5760 5760 5759 5758 5758 5762 5763 5764 5766 5769 5771 5774 5776 5779 5781
5825 5825 5825 5825 5823 5822 5821 5820 5818 5817 5816 5815 5813 5810 5809 5808 5807 5805 5803 5802 5799 5795 5791 5787 5785 5781 5778 5774 5769 5765 5762 5759 5755 5755 5754 5753 5751 5750 5751 5751 5755 5758 5760 5762 5764 5766 5768 5772 5775
5824 5823 5823 5822 5820 5819 5818 5818 5817 5815 5813 5813 5811 5808 5806 5805 5804 5802 5801 5798 5795 5791 5788 5783 5778 5774 5771 5767 5762 5756 5754 5752 5749 5746 5743 5742 5742 5743 5743 5744 5747 5751 5754 5755 5757 5759 5762 5764 5768
5822 5822 5822 5821 5819 5816 5816 5815 5814 5812 5810 5810 5808 5805 5804 5803 5801 5800 5797 5793 5790 5786 5782 5778 5773 5768 5762 5756 5751 5749 5746 5742 5738 5734 5731 5730 5729 5730 5734 5737 5739 5742 5746 5749 5750 5751 5754 5759 5762
5821 5821 5820 5818 5817 5815 5814 5811 5809 5808 5808 5807 5806 5804 5803 5801 5799 5796 5793 5789 5785 5781 5777 5772 5767 5762 5755 5747 5742 5738 5734 5729 5724 5721 5719 5719 5718 5718 5722 5726 5730 5734 5737 5741 5742 5745 5747 5751 5756
5820 5820 5817 5816 5815 5814 5811 5808 5807 5806 5806 5804 5804 5803 5801 5798 5796 5792 5789 5785 5781 5776 5772 5767 5760 5753 5745 5737 5732 5726 5722 5716 5710 5707 5708 5707 5707 5708 5710 5715 5721 5724 5728 5732 5735 5738 5742 5744 5749
5818 5817 5815 5814 5813 5810 5807 5806 5805 5804 5802 5801 5800 5799 5798 5796 5793 5789 5785 5780 5776 5772 5766 5759 5751 5741 5731 5725 5720 5715 5709 5704 5699 5697 5697 5697 5698 5697 5703 5706 5712 5714 5719 5724 5727 5731 5735 5738 5741
5815 5814 5813 5811 5808 5806 5805 5803 5802 5802 5800 5798 5797 5795 5794 5792 5789 5785 5780 5777 5771 5766 5759 5751 5741 5730 5722 5715 5708 5702 5697 5692 5689 5688 5688 5689 5689 5689 5687 5694 5700 5706 5710 5716 5720 5725 5729 5733 5736
5812 5811 5809 5807 5805 5803 5802 5800 5800 5799 5797 5795 5794 5792 5790 5787 5784 5780 5776 5772 5767 5761 5753 5743 5733 5722 5713 5706 5698 5692 5686 5682 5678 5677 5678 5679 5681 5682 5683 5681 5686 5696 5701 5709 5713 5719 5721 5726 5730
5809 5807 5806 5804 5802 5801 5799 5798 5797 5796 5795 5793 5791 5789 5787 5784 5781 5777 5773 5768 5762 5756 5746 5735 5724 5713 5702 5693 5686 5679 5673 5669 5667 5666 5667 5668 5672 5674 5679 5683 5685 5690 5695 5701 5706 5711 5715 5719 5723
5805 5803 5801 5799 5799 5798 5797 5796 5794 5793 5792 5789 5788 5786 5783 5781 5777 5773 5769 5764 5758 5750 5740 5727 5713 5700 5689 5681 5672 5664 5658 5656 5655 5656 5657 5660 5663 5665 5669 5672 5669 5675 5686 5694 5700 5705 5710 5714 5717
5800 5799 5797 5797 5795 5794 5794 5793 5791 5790 5788 5786 5784 5782 5780 5777 5774 5770 5766 5760 5752 5743 5731 5716 5704 5692 5680 5670 5659 5653 5649 5646 5644 5646 5648 5652 5656 5657 5660 5663 5666 5668 5678 5686 5694 5699 5703 5708 5712
5796 5795 5794 5793 5792 5791 5790 5789 5788 5787 5785 5783 5781 5779 5777 5774 5770 5766 5762 5755 5747 5737 5724 5710 5698 5685 5671 5660 5653 5647 5642 5638 5636 5637 5638 5641 5647 5649 5652 5657 5663 5669 5671 5680 5687 5692 5698 5703 5706
5792 5791 5789 5789 5789 5788 5788 5786 5785 5784 5781 5779 5777 5775 5774 5771 5767 5763 5758 5751 5742 5733 5719 5706 5692 5676 5662 5653 5647 5641 5637 5633 5630 5629 5628 5630 5635 5638 5645 5649 5654 5660 5665 5675 5681 5689 5690 5694 5700
5788 5787 5785 5785 5785 5785 5784 5783 5782 5779 5778 5776 5774 5772 5771 5768 5764 5760 5754 5748 5738 5729 5715 5701 5686 5670 5656 5648 5640 5632 5628 5624 5620 5617 5616 5617 5622 5627 5634 5643 5648 5653 5660 5668 5675 5683 5686 5688 5694
5784 5783 5782 5781 5783 5781 5780 5779 5777 5776 5775 5773 5772 5770 5767 5764 5760 5756 5751 5745 5735 5725 5710 5696 5680 5663 5651 5643 5633 5625 5618 5610 5602 5599 5602 5605 5609 5616 5623 5634 5641 5650 5654 5663 5672 5677 5679 5684 5688
5780 5780 5779 5778 5778 5778 5776 5776 5774 5773 5771 5770 5769 5767 5764 5761 5757 5753 5748 5741 5732 5721 5705 5691 5675 5659 5648 5638 5628 5618 5608 5595 5582 5575 5578 5589 5597 5606 5614 5624 5635 5645 5648 5658 5664 5669 5673 5677 5685
5776 5776 5775 5775 5774 5774 5773 5772 5771 5770 5768 5767 5765 5764 5761 5758 5754 5749 5744 5738 5729 5718 5703 5688 5671 5656 5645 5635 5623 5612 5599 5584 5565 5557 5563 5574 5587 5598 5607 5619 5629 5639 5647 5653 5661 5665 5668 5674 5680
5771 5771 5771 5771 5769 5770 5769 5769 5768 5766 5764 5764 5762 5760 5757 5754 5750 5746 5741 5735 5726 5715 5701 5687 5671 5655 5643 5633 5619 5607 5595 5582 5567 5560 5564 5573 5583 5593 5605 5617 5628 5637 5643 5650 5658 5662 5665 5671 5675
5765 5766 5766 5766 5766 5766 5765 5766 5762 5763 5762 5760 5758 5756 5753 5751 5747 5743 5738 5732 5723 5713 5700 5686 5670 5654 5643 5633 5619 5609 5601 5589 5577 5573 5575 5578 5585 5595 5606 5617 5627 5636 5642 5648 5654 5660 5663 5668 5672
5760 5760 5761 5761 5762 5763 5761 5762 5761 5758 5757 5755 5754 5752 5749 5747 5745 5740 5735 5730 5722 5712 5700 5687 5671 5655 5645 5635 5622 5613 5606 5597 5588 5584 5583 5586 5591 5599 5609 5619 5628 5637 5642 5649 5654 5658 5662 5666 5671
5754 5755 5755 5756 5757 5758 5757 5757 5757 5755 5753 5751 5749 5748 5745 5744 5741 5737 5733 5728 5721 5711 5700 5688 5673 5657 5647 5639 5628 5619 5613 5608 5600 5592 5591 5592 5598 5605 5614 5623 5630 5636 5642 5650 5653 5658 5660 5664 5670
5747 5748 5749 5750 5751 5752 5752 5752 5751 5750 5749 5747 5745 5744 5742 5740 5738 5735 5731 5726 5719 5711 5700 5689 5676 5661 5650 5643 5633 5626 5620 5616 5611 5605 5601 5602 5607 5613 5619 5626 5632 5639 5644 5647 5653 5657 5662 5666 5669
5738 5741 5743 5742 5745 5747 5747 5748 5747 5745 5744 5742 5740 5739 5738 5736 5734 5731 5728 5724 5718 5711 5701 5691 5679 5666 5654 5647 5640 5632 5627 5622 5619 5616 5614 5612 5614 5618 5623 5628 5633 5639 5643 5648 5654 5657 5661 5664 5667
5732 5734 5736 5736 5737 5739 5742 5743 5742 5740 5739 5737 5736 5735 5734 5733 5730 5728 5726 5722 5716 5710 5702 5693 5682 5670 5659 5651 5645 5639 5633 5628 5627 5622 5620 5622 5623 5625 5628 5632 5637 5642 5645 5649 5654 5656 5660 5662 5665
5724 5727 5728 5729 5729 5731 5735 5738 5737 5735 5733 5732 5731 5730 5729 5728 5726 5724 5723 5719 5715 5710 5703 5696 5686 5676 5665 5655 5648 5644 5639 5635 5631 5631 5629 5628 5629 5631 5635 5638 5640 5643 5645 5648 5651 5658 5659 5662 5664
5715 5717 5720 5721 5722 5722 5725 5732 5732 5729 5727 5726 5726 5725 5725 5723 5722 5720 5719 5717 5713 5709 5704 5698 5689 5680 5671 5662 5652 5648 5645 5642 5638 5637 5636 5635 5634 5635 5638 5640 5643 5645 5648 5651 5653 5655 5658 5659 5662
5705 5708 5711 5713 5715 5715 5716 5725 5726 5724 5721 5719 5719 5719 5718 5718 5717 5715 5714 5714 5710 5708 5704 5698 5692 5684 5676 5668 5659 5653 5650 5647 5645 5643 5641 5641 5641 5642 5643 5644 5647 5649 5651 5653 5654 5656 5658 5659 5660